Location: Wells
(51.2093°N, 2.6446°W)
Time: 23:02:23
(UTC+00:00)

ITUPSAT 1 - Visible Passes

Search period start: 14 March 2026 00:00
Search period end: 24 March 2026 00:00
Orbit: 687 x 698 km, 98.4° (Epoch: 13 March)

Date Brightness Start Highest point End Pass type
(mag) Time Alt. Az. Time Alt. Az. Time Alt. Az.
14 Mar ? 00:29:28 10° N 00:29:52 12° N 00:29:52 12° N visible
15 Mar ? 01:09:33 10° N 01:10:01 12° NNW 01:10:01 12° NNW visible
16 Mar ? 00:10:59 10° N 00:11:30 13° N 00:11:30 13° N visible
17 Mar ? 00:50:53 10° N 00:51:39 14° N 00:51:39 14° N visible
17 Mar ? 23:52:34 10° NNE 23:53:07 13° NNE 23:53:07 13° NNE visible
18 Mar ? 01:31:16 10° NNW 01:31:48 12° NNW 01:31:48 12° NNW visible
19 Mar ? 00:32:18 10° N 00:33:16 16° N 00:33:16 16° N visible
19 Mar ? 23:34:13 10° NNE 23:34:44 13° NNE 23:34:44 13° NNE visible
20 Mar ? 01:12:24 10° N 01:13:25 14° NNW 01:13:25 14° NNW visible
21 Mar ? 00:13:48 10° N 00:14:53 17° N 00:14:53 17° N visible
21 Mar ? 01:53:21 10° NNW 01:53:33 10° NNW 01:53:33 10° NNW visible
21 Mar ? 23:15:57 10° NNE 23:16:21 12° NNE 23:16:21 12° NNE visible
22 Mar ? 00:53:42 10° N 00:55:01 17° NNW 00:55:01 17° NNW visible
22 Mar ? 23:55:21 10° NNE 23:56:29 17° NNE 23:56:29 17° NNE visible
23 Mar ? 01:34:06 10° NNW 01:35:09 13° NNW 01:35:09 13° NNW visible
23 Mar ? 22:57:47 10° NE 22:57:56 11° NE 22:57:56 11° NE visible
